Weather History for KMMI - December, 2013

Change the Weather History Date:

Wednesday, December 4, 2013

  Actual Average (KTYS) Record (KTYS)
Temperature  
Mean Temperature 60 °F 43 °F  
Max Temperature 69 °F 53 °F 80 °F (1982)
Min Temperature 50 °F 34 °F 12 °F (1871)
Degree Days  
Heating Degree Days 6 22  
Month to date heating degree days 85  
Since 1 July heating degree days 766  
Cooling Degree Days 0 0  
Month to date cooling degree days 0  
Year to date cooling degree days 1526  
Growing Degree Days 10 (Base 50)    
Moisture  
Dew Point 54 °F    
Average Humidity 84    
Maximum Humidity 100    
Minimum Humidity 64    
Precipitation  
Precipitation 0.00 in 0.16 in 4.00 in (1993)
Month to date precipitation 0.62  
Year to date precipitation 43.98  
Snow  
Snow 0.00 in 0.10 in - ()
Month to date snowfall 0.1  
Since 1 July snowfall 0.1  
Snow Depth -    
Sea Level Pressure  
Sea Level Pressure 29.95 in    
Wind  
Wind Speed 2 mph (SSW)    
Max Wind Speed 13 mph    
Max Gust Speed -    
Visibility 9 miles    
Events      
T = Trace of Precipitation, MM = Missing Value Source: NWS Daily Summary

Daily Weather History Graph

Daily Weather History Graph

Search for Another Location

Airport or City:

Trip Planner

Search our weather history database for the weather conditions in past years. The results will help you decide how hot, cold, wet, or windy it might be!

Date:

Astronomy

Dec. 04, 2013 Rise Set
Actual Time 7:31 AM EST 5:25 PM EST
Civil Twilight 7:03 AM EST 5:53 PM EST
Nautical Twilight 6:32 AM EST 6:24 PM EST
Astronomical Twilight 6:01 AM EST 6:55 PM EST
Moon 9:00 AM EST 7:33 PM EST
Length of Visible Light 10h 49m
Length of Day
9h 53m
Waxing Crescent, 4% of the Moon is Illuminated
Dec 4
Waxing Crescent
Dec 9
First Quarter
Dec 17
Full
Dec 25
Last Quarter
Jan 1
New

Hourly Weather History & Observations

Time (EST) Temp. Dew Point Humidity Pressure Visibility Wind Dir Wind Speed Gust Speed Precip Events Conditions
12:35 AM 50.0 °F 50.0 °F 100% 29.91 in 5.0 mi Calm Calm - N/A   Overcast
12:55 AM 50.0 °F 50.0 °F 100% 29.91 in 5.0 mi Calm Calm - N/A   Overcast
1:15 AM 51.8 °F 50.0 °F 94% 29.91 in 6.0 mi Calm Calm - N/A   Overcast
1:35 AM 51.8 °F 50.0 °F 94% 29.90 in 6.0 mi Calm Calm - N/A   Overcast
1:55 AM 51.8 °F 50.0 °F 94% 29.91 in 5.0 mi Calm Calm - N/A   Overcast
2:15 AM 51.8 °F 50.0 °F 94% 29.91 in 6.0 mi Calm Calm - N/A   Overcast
2:35 AM 51.8 °F 50.0 °F 94% 29.91 in 6.0 mi Calm Calm - N/A   Overcast
2:55 AM 51.8 °F 50.0 °F 94% 29.91 in 7.0 mi Calm Calm - N/A   Overcast
3:15 AM 51.8 °F 50.0 °F 94% 29.91 in 7.0 mi Calm Calm - N/A   Overcast
3:35 AM 51.8 °F 50.0 °F 94% 29.91 in 6.0 mi Calm Calm - N/A   Overcast
3:55 AM 51.8 °F 50.0 °F 94% 29.91 in 6.0 mi Calm Calm - N/A   Overcast
4:15 AM 50.0 °F 50.0 °F 100% 29.92 in 6.0 mi Calm Calm - N/A   Overcast
4:35 AM 51.8 °F 50.0 °F 94% 29.92 in 6.0 mi Calm Calm - N/A   Overcast
4:55 AM 51.8 °F 50.0 °F 94% 29.93 in 6.0 mi Calm Calm - N/A   Overcast
5:15 AM 51.8 °F 50.0 °F 94% 29.93 in 7.0 mi Calm Calm - N/A   Overcast
5:35 AM 50.0 °F 50.0 °F 100% 29.94 in 7.0 mi Calm Calm - N/A   Overcast
5:55 AM 51.8 °F 51.8 °F 100% 29.94 in 7.0 mi Calm Calm - N/A   Overcast
6:15 AM 51.8 °F 50.0 °F 94% 29.93 in 7.0 mi Calm Calm - N/A   Overcast
6:35 AM 51.8 °F 51.8 °F 100% 29.94 in 7.0 mi Calm Calm - N/A   Overcast
6:55 AM 51.8 °F 51.8 °F 100% 29.93 in 7.0 mi Calm Calm - N/A   Overcast
7:15 AM 51.8 °F 51.8 °F 100% 29.94 in 7.0 mi Calm Calm - N/A   Overcast
7:35 AM 51.8 °F 51.8 °F 100% 29.94 in 7.0 mi Calm Calm - N/A   Overcast
7:55 AM 51.8 °F 51.8 °F 100% 29.95 in 7.0 mi Calm Calm - N/A   Overcast
8:15 AM 51.8 °F 51.8 °F 100% 29.96 in 7.0 mi Calm Calm - N/A   Overcast
8:35 AM 51.8 °F 51.8 °F 100% 29.97 in 8.0 mi Calm Calm - N/A   Overcast
8:55 AM 51.8 °F 51.8 °F 100% 29.97 in 9.0 mi Calm Calm - N/A   Overcast
9:15 AM 53.6 °F 51.8 °F 94% 29.98 in 9.0 mi Calm Calm - N/A   Overcast
9:35 AM 55.4 °F 53.6 °F 94% 29.98 in 10.0 mi Calm Calm - N/A   Overcast
9:55 AM 57.2 °F 53.6 °F 88% 29.98 in 10.0 mi Calm Calm - N/A   Overcast
10:15 AM 57.2 °F 53.6 °F 88% 29.98 in 10.0 mi Calm Calm - N/A   Overcast
10:35 AM 60.8 °F 55.4 °F 82% 29.99 in 10.0 mi Calm Calm - N/A   Overcast
10:55 AM 62.6 °F 57.2 °F 82% 29.99 in 10.0 mi SW 5.8 mph - N/A   Overcast
11:15 AM 64.4 °F 57.2 °F 77% 29.97 in 10.0 mi Variable 5.8 mph - N/A   Overcast
11:35 AM 66.2 °F 57.2 °F 73% 29.97 in 10.0 mi Variable 4.6 mph - N/A   Overcast
11:55 AM 66.2 °F 57.2 °F 73% 29.96 in 10.0 mi SSW 8.1 mph - N/A   Overcast
12:15 PM 66.2 °F 57.2 °F 73% 29.95 in 10.0 mi SSW 8.1 mph - N/A   Overcast
12:35 PM 66.2 °F 57.2 °F 73% 29.94 in 10.0 mi SW 12.7 mph - N/A   Overcast
12:55 PM 68.0 °F 57.2 °F 68% 29.93 in 10.0 mi SSW 11.5 mph - N/A   Mostly Cloudy
1:15 PM 66.2 °F 57.2 °F 73% 29.93 in 10.0 mi SSW 11.5 mph - N/A   Mostly Cloudy
1:35 PM 69.8 °F 57.2 °F 64% 29.91 in 10.0 mi SSW 10.4 mph - N/A   Mostly Cloudy
1:55 PM 69.8 °F 57.2 °F 64% 29.91 in 10.0 mi SSW 12.7 mph - N/A   Scattered Clouds
2:15 PM 69.8 °F 57.2 °F 64% 29.91 in 10.0 mi SSW 8.1 mph - N/A   Scattered Clouds
2:35 PM 69.8 °F 57.2 °F 64% 29.90 in 10.0 mi South 10.4 mph - N/A   Partly Cloudy
2:55 PM 69.8 °F 57.2 °F 64% 29.91 in 10.0 mi South 10.4 mph - N/A   Clear
3:15 PM 69.8 °F 57.2 °F 64% 29.91 in 10.0 mi Variable 6.9 mph - N/A   Partly Cloudy
3:35 PM 69.8 °F 57.2 °F 64% 29.92 in 9.0 mi Variable 5.8 mph - N/A   Scattered Clouds
3:55 PM 69.8 °F 57.2 °F 64% 29.92 in 10.0 mi SSW 6.9 mph - N/A   Partly Cloudy
4:15 PM 69.8 °F 57.2 °F 64% 29.92 in 10.0 mi SSW 10.4 mph - N/A   Clear
4:35 PM 69.8 °F 57.2 °F 64% 29.93 in 10.0 mi South 5.8 mph - N/A   Clear
4:55 PM 68.0 °F 57.2 °F 68% 29.92 in 10.0 mi Variable 5.8 mph - N/A   Partly Cloudy
5:15 PM 66.2 °F 57.2 °F 73% 29.93 in 10.0 mi South 4.6 mph - N/A   Clear
5:35 PM 66.2 °F 57.2 °F 73% 29.93 in 10.0 mi South 5.8 mph - N/A   Clear
5:55 PM 66.2 °F 57.2 °F 73% 29.93 in 10.0 mi SSE 4.6 mph - N/A   Partly Cloudy
6:15 PM 64.4 °F 57.2 °F 77% 29.94 in 10.0 mi SSE 5.8 mph - N/A   Partly Cloudy
6:35 PM 64.4 °F 57.2 °F 77% 29.95 in 10.0 mi South 4.6 mph - N/A   Mostly Cloudy
6:55 PM 64.4 °F 57.2 °F 77% 29.95 in 10.0 mi Variable 3.5 mph - N/A   Partly Cloudy
7:15 PM 64.4 °F 57.2 °F 77% 29.95 in 10.0 mi Variable 4.6 mph - N/A   Clear
7:35 PM 64.4 °F 57.2 °F 77% 29.96 in 10.0 mi Variable 4.6 mph - N/A   Clear
7:55 PM 64.4 °F 57.2 °F 77% 29.97 in 10.0 mi Variable 3.5 mph - N/A   Partly Cloudy
8:15 PM 64.4 °F 57.2 °F 77% 29.97 in 10.0 mi Variable 3.5 mph - N/A   Scattered Clouds
8:35 PM 64.4 °F 57.2 °F 77% 29.97 in 10.0 mi Calm Calm - N/A   Partly Cloudy
8:55 PM 62.6 °F 55.4 °F 77% 29.98 in 10.0 mi Calm Calm - N/A   Clear
9:15 PM 62.6 °F 55.4 °F 77% 29.98 in 10.0 mi Calm Calm - N/A   Clear
9:35 PM 62.6 °F 55.4 °F 77% 29.99 in 10.0 mi SW 3.5 mph - N/A   Clear
9:55 PM 60.8 °F 55.4 °F 82% 29.99 in 10.0 mi SW 3.5 mph - N/A   Clear
10:15 PM 60.8 °F 57.2 °F 88% 30.00 in 10.0 mi Calm Calm - N/A   Clear
10:35 PM 60.8 °F 57.2 °F 88% 30.01 in 10.0 mi Calm Calm - N/A   Clear
10:55 PM 59.0 °F 55.4 °F 88% 30.00 in 10.0 mi Calm Calm - N/A   Partly Cloudy
11:15 PM 59.0 °F 55.4 °F 88% 30.01 in 10.0 mi SW 3.5 mph - N/A   Partly Cloudy
11:35 PM 59.0 °F 55.4 °F 88% 30.01 in 10.0 mi Calm Calm - N/A   Mostly Cloudy
11:55 PM 59.0 °F 55.4 °F 88% 30.01 in 10.0 mi Calm Calm - N/A   Mostly Cloudy